Weather in Miass

Russia / Chelyabinsk Oblast     55°02′47″N   60°06′29″E
temp.,
°C
wind,
m/s
gust,
m/s
humid.,
%
clouds,
%
prec.,
mm/h
press.,
hPa
HPBL,
m
15 may, sat
sat1523:00+17wnw22644 0.4 102419
02:00+15w227319 0.3 102413
05:00+14w11768 0.9 102411
08:00+20wsw125098 0.0 1024157
11:00+27w352694 0.0 10231971
14:00+29wnw47216 0.0 10222972
17:00+28nw5724100 0.0 10212236
20:00+23wnw38425 0.0 1021193
16 may, sun
sun1623:00+18w225319 0.0 102216
02:00+16w2263100 0.0 102214
05:00+15wnw21644 0.0 102212
08:00+22w26445 0.0 1022301
11:00+28wnw342616 0.0 10211880
14:00+30w242087 0.0 10203581
17:00+24sw91140100 0.1 1021926
20:00+17nw218095 2.9 102234
17 may, mon
mon1723:00+16w11745 2.9 102111
02:00+15w11701 0.0 102111
05:00+14wsw22695 0.0 102111
08:00+21sw125149 0.0 1021144
11:00+28w46247 0.0 10203394
14:00+29nw572368 0.0 10193403
17:00+28nw3526100 0.0 10182737
20:00+20sw37616 0.1 1019208
18 may, tue
tue1823:00+16wsw227451 0.2 101922
02:00+16wsw2271100 0.0 101815
05:00+15w2271100 0.0 101816
08:00+21wnw395572 0.0 1018561
11:00+25nw594199 0.0 10171692
14:00+26nw6930100 0.0 10162305
17:00+25nw5831100 0.0 10162137
20:00+21nnw49436 0.0 1017457
19 may, wed
wed1923:00+15nnw29590 0.0 1019210
02:00+12nne26781 0.0 1021161
05:00+10nne28860 0.0 1023311
08:00+11ne4675100 0.0 1025783
11:00+14ene34590 0.0 1026895
14:00+19e34385 0.0 10241357
17:00+19e3336100 0.0 10241403
20:00+16ese2253100 0.0 102524